DECAYED

STARLINK-4404, 53195 (Decayed)

Orbit data source: Space-Track

STARLINK-4404, 53195 was a payload satellite owned by SpaceX/Seattle (US) in LEO that was launched on Fri, 22 Jul 2022 UTC via an FALCON 9 launch vehicle from the Air Force Western Test Range (AFWTR). Payload-class satellites include a variety of spacecraft equipped with specific instruments for various scientific and technological missions. These include communications satellites like Starlink; space stations such as the ISS; scientific satellites like the Hubble; Earth observation satellites from companies like Planet Labs, Umbra, and HawkEye 360; GPS; miniature CubeSats for education and research; and military/defense satellites.

Not visible in the next 10 days
Identifier
53195, 2022-084G
Orbit
Decayed
Country
Flag of USUS
Related business
Manufacturer
SpaceX/Seattle
Mission
Decayed Commercial Communications
Bus & Motor
STARLINK, Unknown motor
Mass
297 kg wet, ~275 kg dry
Launch date (UTC)
2022-07-22 (4 years ago)
Launch vehicle
FALCON 9
Launch site
Air Force Western Test Range (AFWTR)
Object type
Payload
Rocket body
Debris
Shape & HBR
Box + 1 Pan, 10.1 m
Radar Cross Section
13.562 m², Large (>1 m²)

Expand to show TLE details & history
Last TLE update: 3 months ago

TLE from 3 months ago
0 STARLINK-4404
1 53195U 22084G   26093.78373311  .10346203  26941-5  27582-3 0  9995
2 53195  97.5949 183.4118 0010856 272.5972  87.4087 16.44871049205508
Epoch: 2026-04-03T18:48Z
TLE epoch observation values (Epoch: 2026-04-03T18:48:34.540Z)
Latitude
Longitude
69.15498°
Altitude
155.816 km
Speed
7.813 km/s
True Right ascension
12h 13m 38s
True Declination
0° 00' 00"
Sunlit
Object was in full shadow at epoch
Visualization orbit readout
Latitude
Unknown
Longitude
Unknown
Altitude
Unknown
Speed
Unknown
Apparent Right ascension
Unknown
Apparent Declination
Unknown
Sunlit
N/A
Visualization observer readout
Local Sidereal Time
21:31:14
Azimuth
Unknown
Elevation
Unknown
Doppler factor
Unknown
Orbital elements
Apogee altitude
156.774 km
Perigee altitude
142.6 km
Semi-major axis
6,527.824 km
Eccentricity
0.00109
Inclination
97.5949°
RAAN
183.4118°
Arg. of periapsis
272.5972°
True anomaly
87.53298°
Mean anomaly
87.4087°
Eccentric anomaly
87.47084°
Mean motion
4.1152 °/min
Orbital period
87.48 mins
BSTAR
0.00027582
Loading maneuver chart data...
Computing Atmospheric mass density...
Loading historical data...
Loading historical data...
Loading historical data...
Loading historical data...
Loading historical data...
Loading historical data...
Loading historical data...

Documentation

Showing up to 5 results
|